Regional Weather Roundup
Issued by NWS Northern Indiana

Home | Current Version | Previous Version | Graphics & Text | Print | Product List | Glossary On
Versions: 1 2 3 4 5 6 7 8 9 10 11 12 13 14 15 16 17 18 19 20 21 22 23 24 25 26 27 28 29 30 31 32 33 34 35 36 37 38 39 40 41 42 43 44 45 46 47 48 49 50
000
ASUS43 KIWX 050110
RWRIWX

KIWX WEATHER ROUNDUP
NATIONAL WEATHER SERVICE NORTHERN INDIANA
900 PM EDT SAT JUL 04 2015

NOTE: "FAIR" INDICATES FEW OR NO CLOUDS BELOW 12,000 FEET WITH NO
SIGNIFICANT WEATHER AND/OR OBSTRUCTIONS TO VISIBILITY.

* THESE STATIONS ARE NOT UNDER NWS QUALITY CONTROL. THEY ALSO MAY NOT
  REPORT WEATHER SUCH AS PRECIPITATION OR FOG.

INZ001>027-050200-
NORTHERN INDIANA

CITY           SKY/WX    TMP DP  RH WIND       PRES   REMARKS
GARY*          CLEAR    N/A N/A N/A E5        29.99S
VALPARAISO     PTCLDY    73  63  70 NE3       30.00R
MICHIGAN CITY* CLEAR     70  59  68 CALM      30.00S
LAPORTE*       CLEAR     74  64  71 CALM      30.01R
KNOX*          CLEAR     73  57  56 CALM      29.99S
SOUTH BEND     CLEAR     73  56  54 N3        30.01R
GOSHEN         CLEAR     72  62  71 W3        30.01R
MONTICELLO*    CLEAR     73  64  71 CALM      30.00R
LOGANSPORT*    CLEAR     70  59  68 CALM      30.02R
ROCHESTER*     CLEAR     73  63  68 CALM      30.02R
WARSAW*          N/A     70  61  73 CALM      30.02R
ANGOLA*          N/A     73  64  73 CALM      30.01R
FORT WAYNE     CLEAR     71  63  75 CALM      30.02R
HUNTINGTON*    CLEAR     71  60  67 CALM      30.02R
PERU/GRISSOM   CLEAR     74  62  66 CALM      30.00S
MARION*        CLEAR     72  58  61 CALM      30.02S

$$
INZ028>050-050200-
CENTRAL INDIANA

CITY           SKY/WX    TMP DP  RH WIND       PRES   REMARKS
LAFAYETTE      PTCLDY    73  63  70 CALM      30.00R
KOKOMO*        CLEAR     73  63  68 CALM      30.01R
MUNCIE*        PTCLDY    72  61  68 N5        30.02R
INDIANAPOLIS   MOCLDY    76  57  51 NW7       30.00R

$$
MIZ043>046-050>051-056>058-064>065-071>073-077>080-050200-
SOUTHWEST LOWER MICHIGAN

CITY           SKY/WX    TMP DP  RH WIND       PRES   REMARKS
BATTLE CREEK   CLEAR     74  59  59 NW6       30.01S
BENTON HARBOR  CLEAR     67  58  72 CALM      30.00S
COLDWATER*     CLEAR     70  58  65 CALM      30.01R
HILLSDALE*     CLEAR     71  59  65 CALM      30.02S
HOLLAND        PTCLDY    71  58  63 CALM      30.01S
GRAND RAPIDS   MOCLDY    73  59  61 W8        30.00S
KALAMAZOO      CLEAR     72  57  59 NW6       30.01S
STURGIS*       CLEAR     72  61  68 CALM      30.01R
THREE RIVERS*  FAIR      73  58  60 NW3       30.02R

$$
OHZ001>008-015>018-024>025-050200-
NORTHWEST OHIO

CITY           SKY/WX    TMP DP  RH WIND       PRES   REMARKS
DEFIANCE       CLEAR     74  61  63 CALM      30.00R
FINDLAY        CLEAR     74  57  55 E5        30.00R
TOLEDO EXPRESS CLEAR     68  60  75 CALM      30.00R
TOLEDO METCALF CLEAR     71  57  61 SE5       30.01R
LIMA           CLEAR     70  63  78 CALM      30.02R

$$
AND FOR LAKE MICHIGAN COASTAL AND OPEN LAKE BUOY OBSERVATIONS

STATION/POSITION TEMP    WIND        PRES    VSBY  WAVE
                 AIR SEA DIR/SP/G                  HT/PER
                 (F)     (DEG/KT/KT) (MB)    (MI)  (FT/S)
CALUMET HARBOR    69      70/  6/  8   N/A
MICHIGAN CITY     70      40/ 10/ 10   N/A
BURNS HARBOR      70      80/  8/ 10 1015.9S
SAINT JOSEPH      71        CALM       N/A
4 MI NW BRIDGMAN  67 65                N/A           0
MICHIGAN CITY     67 65   90/  6/  6   N/A           1

$$
&&


USA.gov is the U.S. government's official web portal to all federal, state and local government web resources and services.